Regional Weather Roundup
Issued by NWS Binghamton, NY

Home | Current Version | Previous Version | Text Only | Print | Product List | Glossary On
Versions: 1 2 3 4 5 6 7 8 9 10 11 12 13 14 15 16 17 18 19 20 21 22 23 24 25 26 27 28 29 30 31 32 33 34 35 36 37 38 39 40 41 42 43 44 45 46 47 48 49 50
000
ASUS41 KBGM 290110
RWRBGM
RWRBGM
BINGHAMTON REGIONAL WEATHER ROUNDUP
NATIONAL WEATHER SERVICE BINGHAMTON NY
800 PM EST SUN DEC 28 2014

Note: "fair" indicates few or no clouds below 12,000 feet with no
significant weather and/or obstructions to visibility.

* = Station(s) that does not report precipitation, such as rain,
snow, etc, also no thunder or fog.

!NYZ009-015>018-022>025-036-037-044>046-055>057-062-290200
...CENTRAL NEW YORK...

CITY           SKY/WX    TMP DP  RH WIND       PRES   REMARKS
BINGHAMTON     CLOUDY    31  26  82 NW5       30.02R WCI  26
CORTLAND       MOCLDY    32  27  80 CALM      30.06R
DANSVILLE      CLOUDY    35  23  61 VRB3      30.09R
ELMIRA         CLOUDY    35  24  64 NW8       30.08R WCI  29
ITHACA         PTCLDY    29  25  85 NW5       30.07R WCI  24
HAMILTON       CLOUDY    34  27  75 W3        30.04R
MONTICELLO     CLOUDY    34  27  75 NW9G18    30.00R WCI  26
NORWICH        CLOUDY    34  23  64 NW3       30.05R
ONEONTA        CLOUDY    30  21  69 NW8       30.00R WCI  23
PENN YAN       MOCLDY    34  24  67 SW7       30.07R WCI  28
ROME           CLOUDY    34  28  79 W7        30.06R WCI  28
SIDNEY         CLOUDY    34  30  86 W3        30.05R
SYRACUSE       CLOUDY    35  25  66 SW13      30.07R WCI  26
$$

!PAZ038>040-043-044-047-048-072-290200
...NORTHEAST PENNSYLVANIA...

CITY           SKY/WX    TMP DP  RH WIND       PRES   REMARKS
HAZLETON       CLOUDY    39  32  75 NW7       30.02R WCI  34
SCRANTON       CLOUDY    39  30  70 NW12G21   30.03R WCI  32
TOWANDA*       MOCLDY    37  27  65 NW3       30.08R
$$
&&
KEY
WCI = WIND CHILL INDEX
VSB = VISIBILITY
HX  = HEAT INDEX
$$


USA.gov is the U.S. government's official web portal to all federal, state and local government web resources and services.